EUTELSAT 70B

operational
NORAD ID: 39020 Int'l Des: 2012-069 Owner: EUTSA Country: F
HEOCIRCULARGSOGEO

Über EUTELSAT 70B

Beschreibung wird geladen...

Live-Position

3D-Globus wird geladen...

Nächste Überflüge

Höhenverlauf

Altitude vs Time

uPlot chart will show altitude changes over time

Zweizeiliger Elementsatz

1 39020U 12069A 26063.50799834 -.00000055 00000-0 00000+0 0 9994
2 39020 0.0657 339.0006 0002007 340.1276 96.5099 1.00273548 48456
Epoch: 4. März 2026 • Age: 19 hours

Aktueller Status

Höhe 35793.8 km
Geschwindigkeit 3.07 km/s
Subsatellitenpunkt 0.01°N, 70.52°E
Startdatum 3. Dez. 2012
Alter 13.2 years
Typ other

Technische Details

Klassifizierung Payload
Masse 5250.00 kg
Trockenmasse 2800.00 kg
Gesamtmasse 5250.00 kg
Länge 7.00 m
Durchmesser 2.50 m
Spannweite 30.00 m
Form Box + 2 pan
Hersteller ASTT
Bus-Typ Eurostar 3000
Phasenstatus In Orbit
Besitzer/Staat EUTSA/F

Große Konstellationen

Loading constellations...